SB KEPS @ AMSAT $ORB13066.N 2Line Orbital Elements 13066.AMSAT
HR AMSAT ORBITAL ELEMENTS FOR AMATEUR SATELLITES IN NASA FORMAT FROM WA5QGD FORT WORTH,TX March 7, 2013 BID: ORB13066.N
DECODE 2-LINE ELSETS WITH THE FOLLOWING KEY: 1 AAAAAU 00 0 0 BBBBB.BBBBBBBB .CCCCCCCC 00000-0 00000-0 0 DDDZ 2 AAAAA EEE.EEEE FFF.FFFF GGGGGGG HHH.HHHH III.IIII JJ.JJJJJJJJKKKKKZ KEY: A-CATALOGNUM B-EPOCHTIME C-DECAY D-ELSETNUM E-INCLINATION F-RAAN G-ECCENTRICITY H-ARGPERIGEE I-MNANOM J-MNMOTION K-ORBITNUM Z-CHECKSUM
TO ALL RADIO AMATEURS BT
AO-07 1 07530U 74089B 13066.91699870 -.00000054 00000-0 -71897-4 0 6251 2 07530 101.4252 060.1258 0012291 125.2970 302.2736 12.53595210753095 FO-29 1 24278U 96046B 13065.80257177 .00000029 00000-0 62756-4 0 655 2 24278 098.5674 138.0075 0351397 069.5141 038.2989 13.52996593817469 SO-33 1 25509U 98061B 13066.89796112 .00000284 00000-0 44802-4 0 4489 2 25509 031.4315 281.0668 0351480 351.2053 125.7582 14.28969065750395 RS-22 1 27939U 03042A 13066.57819973 .00000430 00000-0 89822-4 0 2212 2 27939 097.7994 259.7302 0013561 145.5218 214.6877 14.64338441504425 VO-52 1 28650U 05017B 13066.83838321 .00001272 00000-0 15961-3 0 3627 2 28650 097.5755 090.6284 0024773 252.4282 210.5647 14.83607548424054 HO-68 1 36122U 09072B 13066.73253098 -.00000044 00000-0 00000 0 0 3469 2 36122 100.3205 126.2999 0007311 224.6247 135.4281 13.16302435155063 UO-11 1 14781U 84021B 13066.75208534 .00000610 00000-0 85904-4 0 1197 2 14781 097.9146 129.4626 0007712 253.1699 106.8668 14.80770656558929 AO-16 1 20439U 90005D 13064.55474382 .00000086 00000-0 47795-4 0 6902 2 20439 098.4628 007.0372 0012146 105.1621 011.9563 14.32143191207403 LO-19 1 20442U 90005G 13064.53761006 .00000061 00000-0 38408-4 0 6225 2 20442 098.4312 009.1409 0013101 096.9202 015.3038 14.32356374207599 AO-27 1 22825U 93061C 13063.84718538 .00000035 00000-0 30840-4 0 3277 2 22825 098.6088 009.0319 0007662 228.6189 193.2272 14.29537186 13724 IO-26 1 22826U 93061D 13066.87961481 .00000113 00000-0 60810-4 0 871 2 22826 098.6037 012.3362 0008455 212.5939 224.7665 14.29819123 14282 GO-32 1 25397U 98043D 13065.83638431 .00000024 00000-0 29045-4 0 150 2 25397 098.4030 038.1130 0000951 170.1585 249.1403 14.23324821761388 NO-44 1 26931U 01043C 13066.77435984 .00000088 00000-0 66382-4 0 2754 2 26931 067.0522 160.9320 0005965 285.8805 218.7530 14.29892934596925 SO-50 1 27607U 02058C 13066.89582149 .00000933 00000-0 16316-3 0 108 2 27607 064.5569 212.4675 0057994 192.8117 310.7420 14.72788821548797 CO-55 1 27844U 03031E 13065.90996499 .00000206 00000-0 11456-3 0 5952 2 27844 098.7031 076.4663 0010009 178.2696 258.8000 14.21167357502205 CO-57 1 27848U 03031J 13066.60367807 .00000157 00000-0 92808-4 0 5427 2 27848 098.7117 076.6097 0009888 181.7578 299.4840 14.20899913502233 AO-51 1 28375U 04025K 13065.90207887 .00000189 00000-0 69575-4 0 5015 2 28375 098.1899 025.5355 0082572 326.2477 066.5224 14.41075778456601 CP3 1 31129U 07012N 13065.89688190 .00001029 00000-0 24095-3 0 4079 2 31129 097.8938 064.3493 0100807 026.6656 035.0384 14.53485571312134 CO-65 1 32785U 08021C 13066.75837389 .00001189 00000-0 15028-3 0 5716 2 32785 097.7633 127.1419 0013000 278.8719 202.6647 14.83619009262832 PRISM 1 33493U 09002B 13066.98928986 .00002701 00000-0 31976-3 0 5993 2 33493 098.2034 220.7049 0018745 158.9914 201.2095 14.85361644222890 SOHLA-1 1 33496U 09002E 13066.88015041 .00000433 00000-0 80205-4 0 9875 2 33496 098.1228 183.2418 0005255 282.7917 224.0246 14.70200251220980 SO-67 1 35870U 09049F 13067.02571047 .00004280 00000-0 16882-3 0 8562 2 35870 097.2038 099.4075 0001804 010.1982 046.2929 15.26068879192828 TISAT-1 1 36799U 10035E 13066.85122894 .00001543 00000-0 19673-3 0 8708 2 36799 098.0386 150.9579 0015360 041.6183 318.6188 14.82908919143558 STUDSAT 1 36801U 10035G 13065.76579696 .00005194 00000-0 58445-3 0 5968 2 36801 098.0475 152.1463 0011960 028.9105 117.0917 14.87068668143500 FO-69 1 37227U 0 13058.47095845 .00000509 00000-0 79251-4 0 00791 2 37227 071.9702 108.5053 0016475 214.8087 145.2122 14.77380366012706 FO-70 1 37380U 0 13057.30123492 -.00000046 00000-0 14930-5 0 00760 2 37380 071.9749 111.9690 0018455 208.9506 151.0634 14.77121324012601 ALMASAT-1 1 38078U 12006B 13066.48642817 .00021539 00000-0 54209-3 0 658 2 38078 069.4830 076.0770 0718997 276.5597 075.4238 14.19729625 54786 XATCOBEO 1 38082U 12006F 13066.45123881 .00050877 35088-5 10558-2 0 9771 2 38082 069.4819 060.9933 0633817 268.2663 084.5911 14.41991887 55191 NOAA-10 1 16969U 86073A 13066.58336053 .00000077 00000-0 48737-4 0 2680 2 16969 098.5555 096.5885 0012678 178.4432 345.2843 14.27618233377445 NOAA-11 1 19531U 88089A 13066.48864853 .00000007 00000-0 25852-4 0 2709 2 19531 098.7140 151.9058 0011448 186.9380 243.0892 14.15003735261749 NOAA-12 1 21263U 91032A 13066.55980127 .00000050 00000-0 39609-4 0 7468 2 21263 098.7062 092.7088 0014598 152.4728 319.8041 14.25549716134073 MET-3/5 1 21655U 91056A 13064.78213636 -.00000258 00000-0 -70331-3 0 6351 2 21655 082.5594 327.3636 0013825 033.0339 327.1644 13.17046734 36321 MET-2/21 1 22782U 93055A 13064.42919590 .00000049 00000-0 31098-4 0 6801 2 22782 082.5523 185.2324 0023675 139.0043 284.5149 13.83701498985296 OKEAN-4 1 23317U 94066A 13066.88927726 .00000927 00000-0 10743-3 0 1589 2 23317 082.5403 144.5896 0021346 196.6933 286.2572 14.84278169993913 NOAA-14 1 23455U 94089A 13066.45219578 .00000045 00000-0 47018-4 0 2295 2 23455 098.8057 152.4206 0008399 287.6125 131.6049 14.13895064937990 NOAA-15 1 25338U 98030A 13066.51005561 .00000119 00000-0 69615-4 0 6472 2 25338 098.7186 057.3050 0011590 067.2160 091.6787 14.25184146770356 RESURS 1 25394U 98043A 13063.83016456 -.00000012 00000-0 12521-4 0 3200 2 25394 098.3515 044.7310 0001734 154.7259 267.7657 14.24321913761502 FENGYUN1 1 25730U 99025A 13065.94668639 .00001771 00000-0 10214-2 0 8218 2 25730 098.8704 026.7749 0023307 338.0071 053.5708 14.10246448711637 OKEAN-0 1 25860U 99039A 13066.86689086 .00000501 00000-0 82829-4 0 8862 2 25860 097.9786 030.7529 0002163 107.6421 304.7140 14.74494432733428 NOAA-16 1 26536U 00055A 13066.51662137 .00000104 00000-0 80621-4 0 1256 2 26536 099.0556 118.2154 0011219 066.3995 066.6766 14.12845657642217 NOAA-17 1 27453U 02032A 13066.52278508 .00000111 00000-0 65484-4 0 491 2 27453 098.3179 085.9737 0012897 104.6295 042.8302 14.24545284556243 NOAA-18 1 28654U 05018A 13066.52883322 .00000270 00000-0 17326-3 0 5311 2 28654 099.0888 033.3486 0015164 132.3124 337.9905 14.11778088401713 NOAA-19 1 33591U 09005A 13066.52763821 .00000217 00000-0 14423-3 0 7192 2 33591 098.8959 009.4412 0014009 001.7224 121.6658 14.11465905210155 HUBBLE 1 20580U 90037B 13065.85087689 .00001757 00000-0 11404-3 0 1894 2 20580 028.4695 223.5476 0003380 343.1561 165.3609 15.03332840 54285 ISS 1 25544U 98067A 13066.89191705 .00010591 00000-0 17591-3 0 3600 2 25544 051.6469 251.3658 0011615 350.8388 157.1656 15.52623524818971 CO-58 1 28895U 05043F 13065.84452723 .00000609 00000-0 13291-3 0 4207 2 28895 097.8832 286.0986 0018469 048.2069 007.4433 14.60982148392005 FALCON 1 30776U 07006E 13065.54935789 .00004165 00000-0 25568-3 0 5644 2 30776 035.4311 111.7044 0001879 177.4331 308.5935 15.09683181329897 MAST 1 31126U 07012K 13066.88493522 .00000689 00000-0 16308-3 0 7004 2 31126 097.8787 068.6137 0093257 009.5444 057.1683 14.54453195312595 CAPE1 1 31130U 07012P 13065.89454918 .00000967 00000-0 22786-3 0 7113 2 31130 097.8942 064.0023 0101252 027.5016 042.1896 14.53325224311923 COMPASS 1 32787U 08021E 13066.83577567 .00002099 00000-0 25173-3 0 5629 2 32787 097.7641 128.0001 0013401 275.3098 196.7568 14.85044273262929 AAUSAT2 1 32788U 08021F 13066.74096500 .00002202 00000-0 26115-3 0 5525 2 32788 097.7648 128.4582 0013043 275.2514 202.8906 14.85464851262944 DO-64 1 32789U 08021G 13066.79408490 .00004093 00000-0 45448-3 0 5762 2 32789 097.7797 131.7188 0012591 268.6880 213.0871 14.87710184263040 CO-66 1 32791U 08021J 13065.73493255 .00001554 00000-0 19154-3 0 5473 2 32791 097.7649 126.4151 0013858 280.5174 203.4114 14.84267871262674 RS-30 1 32953U 08025A 13066.64631980 .00000010 00000-0 00000 0 0 6560 2 32953 082.5028 131.3392 0020220 094.5881 265.7509 12.43031777217292 METEOR-M 1 35865U 09049A 13066.75370804 -.00000030 00000-0 58324-5 0 2678 2 35865 098.6159 121.6076 0003021 024.8679 335.2645 14.21880564180053 RS-38 1 35869U 09049E 13066.87441495 .00000017 00000-0 26928-4 0 2410 2 35869 098.6104 121.6677 0005159 016.8870 343.2470 14.22115065180099 JUGNU 1 37839U 11058B 13065.78863248 .00000437 00000-0 91992-4 0 3448 2 37839 019.9608 207.2216 0018905 236.0120 282.8634 14.12128958 72409 SRMSAT 1 37841U 11058D 13066.09246528 .00000369 00000-0 58383-4 0 3465 2 37841 019.9712 215.4183 0011716 196.1794 127.8635 14.10203872 72347 RAX-2 1 37853U 11061D 13065.83981519 .00002860 00000-0 22654-3 0 4436 2 37853 101.7134 232.1407 0238913 320.5682 175.1794 14.82438424 73279 AUBIESAT 1 37854U 11061E 13065.42186520 .00003048 00000-0 23632-3 0 4415 2 37854 101.7172 232.1941 0239152 320.6410 090.0188 14.83044392 73226 HRBE 1 37855U 11061F 13065.67535111 .00002899 00000-0 22631-3 0 4373 2 37855 101.7172 232.3967 0239965 320.2502 094.0523 14.82771027 73258 RS-39 1 38051U 11062C 13066.89169569 .00013673 00000-0 47939-3 0 2365 2 38051 051.6366 338.3635 0011219 255.8190 149.4677 15.29675848 62260 E-STAR 1 38079U 12006C 13066.42678911 .00045162 33863-5 96605-3 0 9478 2 38079 069.4807 064.6842 0660703 270.4446 214.3941 14.35709774 55081 GOLIAT 1 38085U 12006J 13066.41598161 .00042121 33368-5 91286-3 0 8798 2 38085 069.4842 066.1829 0667188 271.1318 081.3506 14.34095984 55044 HORYU-2 1 38340U 12025D 13066.39779925 .00001072 00000-0 18438-3 0 4043 2 38340 098.2053 013.2499 0012010 212.3285 147.7172 14.70653486 43158 RS-40 1 38736U 12041D 13066.41360849 .00000010 00000-0 00000 0 0 2045 2 38736 082.4753 218.5777 0020666 181.4557 178.6465 12.43229665 27608 PROITERES 1 38756U 12047B 13066.91211723 .00000466 00000-0 78700-4 0 5735 2 38756 098.2609 142.0700 0013764 071.4156 288.8541 14.74094044 26476 RAIKO 1 38852U 98067CN 13065.85596663 .00053873 00000-0 59160-3 0 1597 2 38852 051.6410 250.7452 0013589 334.5767 025.4557 15.62553703 23797 FITSAT 1 1 38853U 98067CP 13065.93699592 .00071930 00000-0 71178-3 0 1588 2 38853 051.6425 249.0550 0010154 344.3583 015.7097 15.65128713 23876 TechEdSat 1 38854U 98067CQ 13065.85912717 .00142880 00000-0 10390-2 0 1803 2 38854 051.6388 246.2456 0008753 335.3520 024.7059 15.72339313 23902 F 1 1 38855U 98067CR 13066.01822829 .00129343 00000-0 97837-3 0 1820 2 38855 051.6379 245.8022 0008852 337.5122 022.5487 15.71453947 23819 WeWish 1 38856U 98067CS 13066.89699107 .01702681 22298-2 17157-2 0 2339 2 38856 051.6276 232.0091 0012513 308.2968 051.6715 16.10694334 24080 /EX